AAL2218 KDCA-KPVD

Flight info

Callsign AAL2218
Flight time 0h 58m
Altitude 35000
Route SOOKI5 SWANN BROSS Q419 RBV Q430 CREEL HTO JORDN2
Aircraft A319/M-SDE3FGHIRWY/LB1

Departure

Time 2026-04-23 00:31
Airport Ronald Reagan Washington National Airport (KDCA)

Arrival

Time 2026-04-23 01:29
Airport Rhode Island T. F. Green International Airport (KPVD)
Time Latitude Longitude Altitude Speed Heading
2026-04-23 00:14 38.85473 -77.04145 24 ft 0 kts 170°
2026-04-23 00:20 38.85495 -77.04150 24 ft 4 kts 170°
2026-04-23 00:20 38.85513 -77.04154 24 ft 4 kts 129°
2026-04-23 00:20 38.85516 -77.04174 24 ft 2 kts 72°
2026-04-23 00:20 38.85523 -77.04146 24 ft 4 kts 72°
2026-04-23 00:21 38.85532 -77.04113 24 ft 4 kts 72°
2026-04-23 00:21 38.85534 -77.04101 24 ft 0 kts 72°
2026-04-23 00:23 38.85538 -77.04085 24 ft 5 kts 72°
2026-04-23 00:23 38.85549 -77.04040 24 ft 6 kts 73°
2026-04-23 00:24 38.85563 -77.03982 24 ft 7 kts 71°
2026-04-23 00:24 38.85611 -77.03961 25 ft 9 kts 355°
2026-04-23 00:24 38.85678 -77.03969 25 ft 10 kts 355°
2026-04-23 00:24 38.85748 -77.03976 26 ft 11 kts 355°
2026-04-23 00:25 38.85828 -77.03984 25 ft 13 kts 355°
2026-04-23 00:25 38.85914 -77.03988 24 ft 11 kts
2026-04-23 00:25 38.85968 -77.03969 24 ft 6 kts 16°
2026-04-23 00:25 38.85993 -77.03960 24 ft 1 kts 15°
2026-04-23 00:28 38.86005 -77.03956 24 ft 7 kts 15°
2026-04-23 00:28 38.86072 -77.03923 24 ft 12 kts 26°
2026-04-23 00:29 38.86095 -77.03871 23 ft 4 kts 134°
2026-04-23 00:29 38.86083 -77.03870 23 ft 0 kts 174°
2026-04-23 00:30 38.86027 -77.03862 24 ft 35 kts 174°
2026-04-23 00:30 38.85520 -77.03815 26 ft 107 kts 175°
2026-04-23 00:30 38.84589 -77.03722 62 ft 156 kts 176°
2026-04-23 00:31 38.83531 -77.03627 732 ft 149 kts 178°
2026-04-23 00:31 38.82509 -77.03569 1418 ft 145 kts 176°
2026-04-23 00:31 38.81494 -77.03341 1964 ft 153 kts 168°
2026-04-23 00:31 38.80433 -77.03022 2465 ft 163 kts 167°
2026-04-23 00:32 38.79244 -77.02688 2790 ft 187 kts 169°
2026-04-23 00:32 38.77877 -77.02370 3074 ft 215 kts 171°
2026-04-23 00:32 38.76347 -77.01853 3499 ft 239 kts 150°
2026-04-23 00:32 38.75218 -77.00253 4133 ft 257 kts 114°
2026-04-23 00:33 38.74812 -76.97948 4804 ft 272 kts 94°
2026-04-23 00:33 38.74806 -76.95500 5705 ft 278 kts 83°
2026-04-23 00:33 38.75352 -76.93108 6595 ft 283 kts 70°
2026-04-23 00:33 38.76014 -76.90723 7512 ft 286 kts 70°
2026-04-23 00:34 38.76716 -76.88346 8183 ft 290 kts 69°
2026-04-23 00:34 38.77454 -76.85883 8792 ft 296 kts 69°
2026-04-23 00:34 38.78194 -76.83416 8982 ft 297 kts 69°
2026-04-23 00:34 38.78922 -76.80990 9483 ft 297 kts 69°
2026-04-23 00:35 38.79680 -76.78466 10232 ft 305 kts 69°
2026-04-23 00:35 38.80472 -76.75828 10486 ft 328 kts 69°
2026-04-23 00:35 38.81310 -76.73037 10728 ft 349 kts 69°
2026-04-23 00:35 38.82195 -76.70093 11272 ft 358 kts 69°
2026-04-23 00:36 38.83108 -76.67056 11916 ft 363 kts 69°
2026-04-23 00:36 38.84008 -76.64063 12537 ft 367 kts 69°
2026-04-23 00:36 38.84931 -76.60998 13140 ft 370 kts 69°
2026-04-23 00:36 38.85864 -76.57899 13718 ft 374 kts 69°
2026-04-23 00:37 38.86917 -76.54830 14258 ft 378 kts 59°
2026-04-23 00:37 38.88592 -76.52219 14782 ft 382 kts 42°
2026-04-23 00:37 38.90610 -76.49965 15309 ft 385 kts 40°
2026-04-23 00:37 38.92653 -76.47719 15808 ft 388 kts 40°
2026-04-23 00:38 38.94719 -76.45459 16282 ft 392 kts 40°
2026-04-23 00:38 38.96805 -76.43177 16742 ft 395 kts 40°
2026-04-23 00:38 38.98903 -76.40874 17182 ft 398 kts 40°
2026-04-23 00:38 39.01009 -76.38556 17610 ft 401 kts 40°
2026-04-23 00:39 39.03133 -76.36210 18021 ft 404 kts 40°
2026-04-23 00:39 39.05270 -76.33847 18420 ft 407 kts 40°
2026-04-23 00:39 39.07425 -76.31460 18808 ft 409 kts 40°
2026-04-23 00:39 39.09595 -76.29051 19185 ft 412 kts 40°
2026-04-23 00:40 39.11732 -76.26637 19535 ft 415 kts 44°
2026-04-23 00:40 39.13597 -76.23795 19882 ft 418 kts 56°
2026-04-23 00:40 39.14982 -76.20507 20225 ft 420 kts 68°
2026-04-23 00:40 39.15832 -76.16915 20548 ft 422 kts 79°
2026-04-23 00:41 39.16272 -76.13168 20865 ft 424 kts 82°
2026-04-23 00:41 39.16698 -76.09388 21171 ft 427 kts 82°
2026-04-23 00:41 39.17132 -76.05586 21434 ft 429 kts 82°
2026-04-23 00:41 39.17570 -76.01770 21726 ft 431 kts 82°
2026-04-23 00:42 39.18008 -75.97941 21992 ft 433 kts 82°
2026-04-23 00:42 39.18488 -75.94102 22234 ft 435 kts 77°
2026-04-23 00:42 39.19425 -75.90384 22469 ft 437 kts 66°
2026-04-23 00:42 39.20911 -75.86967 22692 ft 439 kts 54°
2026-04-23 00:43 39.22894 -75.83979 22906 ft 441 kts 43°
2026-04-23 00:43 39.25225 -75.81392 23109 ft 442 kts 40°
2026-04-23 00:43 39.27580 -75.78836 23308 ft 444 kts 40°
2026-04-23 00:43 39.29940 -75.76261 23497 ft 445 kts 40°
2026-04-23 00:44 39.32312 -75.73662 23679 ft 447 kts 40°
2026-04-23 00:44 39.34681 -75.71066 23852 ft 448 kts 40°
2026-04-23 00:44 39.37061 -75.68458 24019 ft 449 kts 40°
2026-04-23 00:44 39.39447 -75.65838 24182 ft 451 kts 40°
2026-04-23 00:45 39.41841 -75.63208 24334 ft 452 kts 40°
2026-04-23 00:45 39.44242 -75.60563 24479 ft 453 kts 40°
2026-04-23 00:45 39.46642 -75.57917 24622 ft 454 kts 40°
2026-04-23 00:45 39.49056 -75.55260 24761 ft 456 kts 40°
2026-04-23 00:46 39.51473 -75.52596 24896 ft 457 kts 40°
2026-04-23 00:46 39.53896 -75.49920 25026 ft 458 kts 40°
2026-04-23 00:46 39.56317 -75.47243 25152 ft 459 kts 40°
2026-04-23 00:46 39.58741 -75.44559 25282 ft 459 kts 40°
2026-04-23 00:47 39.61173 -75.41864 25407 ft 460 kts 40°
2026-04-23 00:47 39.63612 -75.39159 25532 ft 461 kts 40°
2026-04-23 00:47 39.66057 -75.36446 25658 ft 462 kts 40°
2026-04-23 00:47 39.68501 -75.33734 25783 ft 463 kts 40°
2026-04-23 00:48 39.70950 -75.31016 25908 ft 464 kts 40°
2026-04-23 00:48 39.73401 -75.28289 26035 ft 464 kts 40°
2026-04-23 00:48 39.75859 -75.25553 26160 ft 465 kts 40°
2026-04-23 00:48 39.78315 -75.22807 26285 ft 466 kts 41°
2026-04-23 00:49 39.79844 -75.20841 26366 ft 466 kts 48°
2026-04-23 00:49 39.82681 -75.16636 26534 ft 467 kts 49°
2026-04-23 00:49 39.84824 -75.13454 26659 ft 468 kts 49°
2026-04-23 00:49 39.86970 -75.10267 26784 ft 468 kts 49°
2026-04-23 00:50 39.89113 -75.07078 26909 ft 469 kts 49°
2026-04-23 00:50 39.91264 -75.03873 27034 ft 469 kts 49°
2026-04-23 00:50 39.92714 -75.01709 27119 ft 470 kts 49°
2026-04-23 00:50 39.94865 -74.98495 27244 ft 470 kts 49°
2026-04-23 00:51 39.96954 -74.95279 27366 ft 471 kts 53°
2026-04-23 00:51 39.98797 -74.91759 27525 ft 470 kts 56°
2026-04-23 00:51 40.00605 -74.88207 27774 ft 468 kts 56°
2026-04-23 00:51 40.02402 -74.84678 28023 ft 466 kts 56°
2026-04-23 00:52 40.04219 -74.81111 28276 ft 464 kts 56°
2026-04-23 00:52 40.05976 -74.77670 28521 ft 461 kts 56°
2026-04-23 00:52 40.07748 -74.74193 28770 ft 459 kts 56°
2026-04-23 00:52 40.09535 -74.70675 29024 ft 457 kts 56°
2026-04-23 00:53 40.11261 -74.67272 29270 ft 454 kts 56°
2026-04-23 00:53 40.13003 -74.63839 29520 ft 452 kts 56°
2026-04-23 00:53 40.14731 -74.60428 29769 ft 450 kts 57°
2026-04-23 00:53 40.16451 -74.57026 30019 ft 448 kts 57°
2026-04-23 00:54 40.18163 -74.53634 30269 ft 446 kts 57°
2026-04-23 00:54 40.19784 -74.50194 30519 ft 443 kts 62°
2026-04-23 00:54 40.21033 -74.46525 30768 ft 441 kts 70°
2026-04-23 00:54 40.22028 -74.42733 31019 ft 439 kts 71°
2026-04-23 00:55 40.23020 -74.38958 31268 ft 438 kts 71°
2026-04-23 00:55 40.24013 -74.35196 31518 ft 436 kts 71°
2026-04-23 00:55 40.25000 -74.31463 31767 ft 434 kts 71°
2026-04-23 00:55 40.25986 -74.27728 32017 ft 433 kts 71°
2026-04-23 00:56 40.26965 -74.24011 32266 ft 431 kts 71°
2026-04-23 00:56 40.27940 -74.20294 32517 ft 429 kts 71°
2026-04-23 00:56 40.28906 -74.16609 32766 ft 428 kts 71°
2026-04-23 00:56 40.29870 -74.12918 32958 ft 428 kts 71°
2026-04-23 00:57 40.30834 -74.09214 33009 ft 431 kts 71°
2026-04-23 00:57 40.32778 -74.01700 33010 ft 440 kts 71°
2026-04-23 00:58 40.34767 -73.94023 33010 ft 448 kts 71°
2026-04-23 00:58 40.36786 -73.86244 33009 ft 454 kts 71°
2026-04-23 00:59 40.38834 -73.78335 33010 ft 460 kts 71°
2026-04-23 00:59 40.40880 -73.70389 33010 ft 465 kts 71°
2026-04-23 01:00 40.42954 -73.62293 33010 ft 470 kts 71°
2026-04-23 01:00 40.45176 -73.54191 33008 ft 474 kts 64°
2026-04-23 01:01 40.48190 -73.46444 33009 ft 478 kts 63°
2026-04-23 01:01 40.51220 -73.38642 33009 ft 481 kts 63°
2026-04-23 01:02 40.54256 -73.30788 33009 ft 483 kts 63°
2026-04-23 01:02 40.57307 -73.22886 33009 ft 485 kts 63°
2026-04-23 01:03 40.60320 -73.15068 33009 ft 475 kts 63°
2026-04-23 01:03 40.63287 -73.07318 33009 ft 473 kts 63°
2026-04-23 01:04 40.66227 -72.99619 33007 ft 461 kts 63°
2026-04-23 01:04 40.70409 -72.88666 33009 ft 437 kts 63°
2026-04-23 01:05 40.73120 -72.81522 33009 ft 435 kts 63°
2026-04-23 01:05 40.75829 -72.74401 33009 ft 434 kts 63°
2026-04-23 01:06 40.78514 -72.67311 33009 ft 434 kts 64°
2026-04-23 01:06 40.81207 -72.60167 33009 ft 434 kts 64°
2026-04-23 01:07 40.83897 -72.53025 33008 ft 434 kts 64°
2026-04-23 01:07 40.86582 -72.45883 33007 ft 434 kts 64°
2026-04-23 01:08 40.89246 -72.38783 33006 ft 434 kts 64°
2026-04-23 01:08 40.91922 -72.31627 33008 ft 434 kts 64°
2026-04-23 01:09 40.94458 -72.24425 33042 ft 430 kts 66°
2026-04-23 01:09 40.96854 -72.17191 33042 ft 427 kts 66°
2026-04-23 01:10 40.99229 -72.10018 33039 ft 425 kts 66°
2026-04-23 01:10 41.01558 -72.03074 33007 ft 413 kts 66°
2026-04-23 01:11 41.03730 -71.96623 33007 ft 408 kts 66°
2026-04-23 01:11 41.04916 -71.93174 32278 ft 415 kts 62°
2026-04-23 01:11 41.06459 -71.89919 31207 ft 419 kts 51°
2026-04-23 01:12 41.08317 -71.86990 30482 ft 414 kts 49°
2026-04-23 01:12 41.10168 -71.84074 29663 ft 411 kts 50°
2026-04-23 01:12 41.11982 -71.81183 28981 ft 405 kts 50°
2026-04-23 01:12 41.13768 -71.78316 28277 ft 401 kts 50°
2026-04-23 01:13 41.15532 -71.75481 27581 ft 396 kts 50°
2026-04-23 01:13 41.17208 -71.72794 26980 ft 391 kts 50°
2026-04-23 01:13 41.18918 -71.70055 26640 ft 378 kts 50°
2026-04-23 01:13 41.20565 -71.67419 26245 ft 366 kts 51°
2026-04-23 01:14 41.22161 -71.64865 25799 ft 356 kts 49°
2026-04-23 01:14 41.23734 -71.62345 25098 ft 354 kts 47°
2026-04-23 01:14 41.25299 -71.59833 24434 ft 351 kts 47°
2026-04-23 01:14 41.26848 -71.57346 23853 ft 345 kts 47°
2026-04-23 01:15 41.28366 -71.54915 23258 ft 339 kts 47°
2026-04-23 01:15 41.29848 -71.52539 22917 ft 327 kts 47°
2026-04-23 01:15 41.31285 -71.50231 22413 ft 321 kts 47°
2026-04-23 01:15 41.32674 -71.47996 21774 ft 321 kts 48°
2026-04-23 01:16 41.34080 -71.45731 21275 ft 314 kts 46°
2026-04-23 01:16 41.35451 -71.43520 20935 ft 301 kts 55°
2026-04-23 01:16 41.36798 -71.41501 20727 ft 287 kts 49°
2026-04-23 01:16 41.38464 -71.40023 20212 ft 293 kts 33°
2026-04-23 01:17 41.40477 -71.39290 19540 ft 310 kts 16°
2026-04-23 01:17 41.42666 -71.39491 18832 ft 333 kts 356°
2026-04-23 01:17 41.44844 -71.40807 17987 ft 360 kts 335°
2026-04-23 01:17 41.46646 -71.43136 16937 ft 391 kts 313°
2026-04-23 01:18 41.47872 -71.46405 16073 ft 393 kts 287°
2026-04-23 01:18 41.48672 -71.49838 15420 ft 382 kts 286°
2026-04-23 01:18 41.49442 -71.53193 14682 ft 375 kts 286°
2026-04-23 01:18 41.50196 -71.56500 13914 ft 370 kts 286°
2026-04-23 01:19 41.50937 -71.59762 13141 ft 365 kts 286°
2026-04-23 01:19 41.51666 -71.62974 12364 ft 360 kts 286°
2026-04-23 01:19 41.52387 -71.66152 11584 ft 355 kts 286°
2026-04-23 01:19 41.53098 -71.69286 10804 ft 350 kts 286°
2026-04-23 01:20 41.53840 -71.72352 10122 ft 343 kts 293°
2026-04-23 01:20 41.55139 -71.74863 9989 ft 320 kts 317°
2026-04-23 01:20 41.56971 -71.76366 9806 ft 303 kts 341°
2026-04-23 01:20 41.59011 -71.76848 9355 ft 296 kts 355°
2026-04-23 01:21 41.61059 -71.77039 8808 ft 294 kts 356°
2026-04-23 01:21 41.63085 -71.77201 8255 ft 291 kts 356°
2026-04-23 01:21 41.65099 -71.77356 7694 ft 288 kts 356°
2026-04-23 01:21 41.67087 -71.77506 7134 ft 285 kts 356°
2026-04-23 01:22 41.69064 -71.77655 6570 ft 283 kts 356°
2026-04-23 01:22 41.71015 -71.77800 6036 ft 280 kts 356°
2026-04-23 01:22 41.72949 -71.77944 5876 ft 279 kts 356°
2026-04-23 01:22 41.74888 -71.78084 5878 ft 280 kts 358°
2026-04-23 01:23 41.76801 -71.77676 5888 ft 281 kts 23°
2026-04-23 01:23 41.78396 -71.76191 5885 ft 281 kts 44°
2026-04-23 01:23 41.79757 -71.74359 5882 ft 281 kts 46°
2026-04-23 01:23 41.81106 -71.72484 5738 ft 274 kts 46°
2026-04-23 01:24 41.82398 -71.70680 5586 ft 263 kts 46°
2026-04-23 01:24 41.83642 -71.68939 5435 ft 253 kts 46°
2026-04-23 01:24 41.84785 -71.67188 5274 ft 246 kts 58°
2026-04-23 01:24 41.85394 -71.65061 4917 ft 245 kts 80°
2026-04-23 01:25 41.85691 -71.62833 4537 ft 240 kts 81°
2026-04-23 01:25 41.85969 -71.60653 4161 ft 235 kts 81°
2026-04-23 01:25 41.86217 -71.58513 3778 ft 229 kts 90°
2026-04-23 01:25 41.85914 -71.56463 3406 ft 224 kts 117°
2026-04-23 01:26 41.84982 -71.54830 3032 ft 219 kts 137°
2026-04-23 01:26 41.83915 -71.53468 2671 ft 209 kts 137°
2026-04-23 01:26 41.82784 -71.52344 2600 ft 202 kts 149°
2026-04-23 01:26 41.81584 -71.51483 2420 ft 186 kts 155°
2026-04-23 01:27 41.80471 -71.50752 2163 ft 171 kts 153°
2026-04-23 01:27 41.79488 -71.49917 1907 ft 164 kts 145°
2026-04-23 01:27 41.78644 -71.49001 1671 ft 150 kts 142°
2026-04-23 01:27 41.77844 -71.48149 1419 ft 145 kts 144°
2026-04-23 01:28 41.77052 -71.47341 1146 ft 142 kts 143°
2026-04-23 01:28 41.76292 -71.46507 964 ft 141 kts 143°
2026-04-23 01:28 41.75516 -71.45708 785 ft 141 kts 142°
2026-04-23 01:28 41.74758 -71.44887 575 ft 140 kts 143°
2026-04-23 01:29 41.73992 -71.44086 337 ft 139 kts 143°
2026-04-23 01:29 41.73232 -71.43285 138 ft 139 kts 143°
2026-04-23 01:29 41.72514 -71.42527 58 ft 114 kts 141°
2026-04-23 01:29 41.72127 -71.42118 65 ft 34 kts 141°
2026-04-23 01:30 41.71982 -71.41965 63 ft 26 kts 142°
2026-04-23 01:30 41.71868 -71.41863 64 ft 14 kts 178°
2026-04-23 01:30 41.71839 -71.41957 64 ft 14 kts 313°
2026-04-23 01:30 41.71918 -71.42039 63 ft 16 kts 322°
2026-04-23 01:31 41.72001 -71.42127 66 ft 15 kts 321°
2026-04-23 01:31 41.72085 -71.42216 66 ft 17 kts 321°
2026-04-23 01:31 41.72187 -71.42325 66 ft 19 kts 318°
2026-04-23 01:31 41.72266 -71.42452 64 ft 20 kts 322°
2026-04-23 01:32 41.72378 -71.42570 62 ft 18 kts 322°
2026-04-23 01:32 41.72466 -71.42705 60 ft 21 kts 302°
2026-04-23 01:32 41.72541 -71.42865 62 ft 16 kts 302°
2026-04-23 01:32 41.72553 -71.43005 63 ft 16 kts 265°
2026-04-23 01:33 41.72546 -71.43155 64 ft 17 kts 266°
2026-04-23 01:33 41.72549 -71.43302 67 ft 16 kts 293°
2026-04-23 01:33 41.72629 -71.43298 67 ft 13 kts 33°
2026-04-23 01:33 41.72668 -71.43301 67 ft 3 kts 338°
2026-04-23 01:34 41.72684 -71.43310 67 ft 4 kts 338°
2026-04-23 01:34 41.72694 -71.43341 67 ft 3 kts 269°
2026-04-23 01:34 41.72695 -71.43363 67 ft 0 kts 277°
2026-04-23 01:34 41.72695 -71.43364 67 ft 0 kts 277°
2026-04-23 01:49 41.72695 -71.43356 67 ft 0 kts 278°